PDT,Max TemperatureF,Mean TemperatureF,Min TemperatureF,Max Dew PointF,MeanDew PointF,Min DewpointF,Max Humidity, Mean Humidity, Min Humidity, Max Sea Level PressureIn, Mean Sea Level PressureIn, Min Sea Level PressureIn, Max VisibilityMiles, Mean VisibilityMiles, Min VisibilityMiles, Max Wind SpeedMPH, Mean Wind SpeedMPH, Max Gust SpeedMPH,PrecipitationIn, CloudCover, Events, WindDirDegrees
2014-4-1,43,32,21,33,28,19,96,82,55,29.86,29.80,29.71,10,9,1,16,5,19,T,5,Rain-Snow,187
2014-4-2,54,39,23,32,27,22,96,69,35,30.04,29.97,29.86,10,10,6,17,5,20,T,2,Snow,276
2014-4-3,50,38,26,33,28,23,85,67,42,30.03,29.99,29.95,10,10,10,25,7,29,0.01,5,Rain,192
2014-4-4,47,41,34,37,33,29,92,79,53,30.01,29.95,29.92,10,10,5,21,5,23,0.07,7,Rain,260
2014-4-5,53,41,29,37,34,29,92,74,50,30.21,30.12,30.02,10,10,10,17,6,21,T,7,Rain,234
2014-4-6,61,47,33,42,38,31,96,74,37,30.33,30.26,30.20,10,10,9,15,6,20,T,5,Rain,253
2014-4-7,72,50,27,39,32,24,92,60,17,30.32,30.23,30.14,10,10,7,13,3,20,0.00,0,,263
2014-4-8,72,52,32,41,35,29,89,57,26,30.19,30.12,30.04,10,10,10,17,4,21,0.00,0,,246
2014-4-9,69,51,33,40,34,22,96,57,17,30.09,30.05,30.00,10,10,10,21,7,28,0.00,0,,292
2014-4-10,71,50,29,41,31,7,92,65,8,30.12,30.05,29.96,10,9,0,16,4,18,0.00,0,Fog,217
2014-4-11,73,52,31,42,33,26,85,52,20,30.02,29.93,29.85,10,10,10,17,5,21,0.00,0,,327
2014-4-12,70,51,32,41,29,14,92,48,17,29.98,29.87,29.79,10,10,10,24,8,30,0.00,0,,311
2014-4-13,65,49,32,24,21,17,63,35,16,30.19,30.13,30.01,10,10,10,15,7,19,0.00,0,,70
2014-4-14,71,48,24,33,25,18,69,41,15,30.18,30.11,30.04,10,10,10,21,5,25,0.00,0,,320
2014-4-15,64,50,36,36,29,17,79,49,17,30.08,30.02,29.98,10,10,10,21,9,24,0.00,2,,296
2014-4-16,64,47,29,36,31,25,85,54,32,30.06,29.99,29.92,10,10,10,16,5,19,0.00,0,,293
2014-4-17,64,48,31,40,35,30,92,74,43,30.00,29.91,29.80,10,10,7,29,7,33,T,3,,267
2014-4-18,64,43,22,37,27,14,100,73,14,30.07,30.00,29.92,10,7,0,12,4,16,0.00,1,Fog,121
2014-4-19,65,45,24,36,28,18,100,58,17,30.18,29.99,29.90,10,9,2,30,8,38,0.00,0,,284
2014-4-20,68,46,24,33,26,22,92,67,18,30.29,30.22,30.09,10,6,0,9,2,13,0.00,1,Fog,137
2014-4-21,65,48,31,36,31,23,85,55,23,30.09,29.93,29.78,10,10,7,32,11,41,T,3,Rain,180
2014-4-22,49,40,31,34,28,19,85,70,34,30.04,29.91,29.79,10,10,9,29,12,34,0.01,6,Rain-Snow,281
2014-4-23,55,42,29,41,32,26,89,69,41,30.06,30.01,29.93,10,10,10,24,9,28,0.01,8,Rain,215
2014-4-24,58,49,39,41,35,24,89,64,35,29.94,29.88,29.81,10,10,9,28,10,34,0.03,6,Rain,233
2014-4-25,48,38,27,34,30,24,96,80,45,29.82,29.79,29.71,10,8,1,24,7,28,0.06,7,Rain-Snow,305
2014-4-26,50,35,19,33,23,16,92,62,26,29.86,29.84,29.82,10,10,10,22,7,31,T,3,Rain,260
2014-4-27,52,40,28,35,30,21,85,67,33,30.13,29.93,29.81,10,10,10,24,12,33,0.01,4,Rain,280
2014-4-28,61,40,18,31,23,16,96,67,20,30.35,30.24,30.16,10,7,0,13,3,15,0.00,1,Fog,301
2014-4-29,73,50,27,34,29,27,92,47,20,30.43,30.37,30.31,10,10,10,15,6,19,0.00,0,,72
2014-4-30,79,58,37,30,23,16,70,30,10,30.35,30.24,30.15,10,10,10,20,8,27,0.00,0,,132